Wind_Speed
27 28 27 28 28 29 29 29 28 29 31 33 33 31 29 31 31 29 27 32 36 32 31 31 29 27 23 23 26 28 28 23 19 18 16 24 32 29 29 22 18 26 22 19 20 18 13 9 12 11 11 5 1 1 1 2 2 3 2 3 2 3 3 3 5 5 3 4 5 5 4 8 5 1 1 3 7 5 4 6 3 6 6 3 6 18 31 29
28 28 28 28 28 30 30 30 30 29 31 33 34 33 31 31 31 31 28 31 35 34 34 34 35 34 28 27 28 29 27 24 18 17 26 33 31 28 27 23 20 27 25 21 24 23 15 8 11 11 6 3 1 2 1 2 2 3 3 3 3 4 3 4 5 5 2 4 5 3 3 6 7 5 2 3 3 4 5 4 4 5 6 6 12 24 29 27
28 28 28 28 28 30 30 31 32 31 32 34 35 33 32 32 31 31 29 30 33 34 35 34 34 36 32 27 26 28 25 19 13 18 36 36 28 29 28 23 22 28 27 24 27 27 22 16 17 11 4 2 0 2 1 1 1 2 3 3 5 3 2 3 2 3 2 3 4 2 1 4 5 4 3 5 6 4 4 2 1 1 2 6 11 21 25 25
28 28 28 29 29 31 31 32 33 33 33 34 35 34 33 33 31 31 29 29 32 33 35 34 32 34 33 25 20 21 17 10 8 20 41 38 30 30 29 25 23 28 27 25 25 25 24 22 17 8 4 3 1 3 2 2 1 1 3 3 5 3 3 3 3 0 0 4 5 2 3 4 3 2 3 7 7 3 5 7 7 8 10 9 9 16 22 22
29 29 29 30 29 31 32 32 34 34 36 35 36 35 33 33 32 32 30 29 32 35 36 35 33 33 33 27 22 17 10 4 6 26 42 38 34 31 30 28 24 27 26 24 23 22 23 18 11 5 4 3 3 3 2 3 2 1 2 4 4 4 3 5 4 1 1 4 4 2 4 2 1 1 4 8 7 5 6 8 9 11 14 14 14 16 18 18
31 30 30 30 30 31 32 33 34 35 38 37 36 37 35 34 33 32 32 30 32 35 37 38 36 33 32 29 24 20 13 4 6 29 44 38 36 33 30 30 26 26 25 24 24 21 17 11 8 5 3 3 5 5 3 3 2 2 3 3 4 3 3 3 2 1 3 5 4 3 2 1 1 1 3 7 7 7 6 8 10 12 17 20 19 18 16 15
33 32 32 31 31 32 33 34 35 37 39 38 36 37 37 35 34 34 33 32 32 35 37 39 37 32 31 26 20 17 12 10 5 23 43 40 39 35 31 32 28 26 24 23 22 16 11 10 9 7 5 3 5 5 4 4 2 2 3 3 5 4 4 4 2 2 5 6 2 2 1 0 2 2 1 3 7 8 6 5 11 15 19 21 18 16 17 18
34 34 32 31 31 32 34 35 35 37 40 39 37 37 37 36 36 35 35 34 33 35 36 38 38 32 31 25 16 10 10 18 14 14 38 45 40 37 32 32 30 27 26 25 23 16 11 12 10 7 5 4 4 4 5 5 1 4 5 3 3 3 3 4 3 3 3 3 1 3 1 4 5 2 1 5 8 7 6 3 10 14 16 16 15 15 16 17
34 34 33 31 31 32 34 35 35 38 40 39 38 38 38 36 36 36 36 35 33 36 35 37 38 34 34 25 12 10 17 33 23 12 32 47 41 40 34 33 33 29 25 25 26 21 13 11 10 7 7 5 5 6 6 6 3 6 6 2 3 2 2 2 3 3 3 2 1 2 3 6 5 2 2 8 9 4 2 6 10 13 13 13 13 14 15 15
34 35 34 33 32 32 33 35 36 37 39 40 38 39 38 36 36 36 37 35 32 36 35 35 38 35 35 22 9 11 18 31 24 12 31 47 42 42 37 36 36 31 24 21 23 20 13 10 9 6 6 3 5 6 5 6 3 4 5 2 4 2 0 1 1 4 2 1 2 3 5 6 3 1 3 8 7 3 6 6 9 12 13 13 12 13 16 16
35 35 34 33 33 34 33 35 37 37 40 41 38 39 39 36 36 37 37 36 33 35 35 36 42 40 33 19 10 12 10 22 26 17 33 45 43 43 40 40 37 32 25 17 19 21 16 15 15 8 4 2 6 6 3 5 4 5 6 3 2 2 1 2 5 4 1 2 5 6 5 6 2 1 6 8 4 6 8 8 9 11 12 13 12 11 14 17
36 35 34 34 33 34 35 36 37 38 41 42 40 39 40 37 36 38 37 36 34 34 36 39 46 42 28 13 14 16 8 19 29 22 35 43 44 45 42 42 39 34 29 18 17 21 18 21 21 8 2 6 5 4 4 5 5 6 7 4 3 1 1 6 6 4 4 3 5 5 5 8 6 6 9 8 4 7 8 9 9 11 10 11 11 10 10 15
36 36 35 35 34 34 35 36 38 40 42 42 41 40 39 37 36 38 37 36 34 36 38 40 46 39 23 9 18 24 17 17 24 24 33 40 39 41 41 43 41 36 33 24 19 21 20 26 25 8 4 9 5 3 4 4 5 5 5 4 3 0 4 8 6 4 5 3 5 6 4 9 8 9 11 9 6 8 8 9 10 9 9 9 9 9 9 13
34 36 36 36 35 34 35 37 39 41 43 42 41 39 39 37 37 37 36 35 33 36 38 39 45 34 17 8 8 24 27 15 19 26 32 36 32 31 33 37 36 29 27 24 18 17 19 25 21 8 3 5 3 3 6 4 3 5 4 2 3 2 4 6 6 7 5 3 6 7 6 8 5 8 11 8 8 10 10 10 10 9 8 8 8 9 9 12
34 36 36 36 37 36 36 38 40 41 43 43 40 38 37 36 37 36 34 34 32 35 36 37 44 28 9 6 3 22 31 13 19 33 34 36 32 24 25 29 26 20 21 21 18 17 21 23 15 6 3 2 2 5 6 2 1 4 4 2 3 4 4 5 5 10 9 4 5 8 5 8 5 8 8 5 8 9 10 10 10 10 9 9 8 9 9 10
35 36 36 36 37 37 38 39 40 41 43 43 39 38 37 35 35 34 33 33 31 34 34 29 36 28 7 6 7 18 22 13 25 38 36 38 35 27 27 29 22 20 22 19 19 18 18 17 6 2 4 3 4 6 5 2 1 3 4 4 5 6 3 3 3 8 10 4 4 8 5 5 4 7 5 1 8 9 10 10 10 10 10 10 9 9 9 8
35 36 37 37 37 38 39 39 39 41 43 43 39 37 35 33 34 33 31 32 30 33 34 26 29 25 6 6 12 14 18 18 25 32 34 35 36 34 32 24 17 21 21 14 16 14 7 6 2 1 3 3 5 6 6 5 5 4 3 2 5 6 4 2 3 4 7 7 6 9 8 7 7 6 5 2 5 8 10 11 10 10 9 9 8 8 9 9
36 37 38 38 38 39 40 40 40 42 43 42 39 36 34 31 32 31 29 30 26 26 28 23 22 15 4 10 15 17 24 26 25 28 32 30 33 39 32 20 16 19 16 7 7 6 1 2 2 3 3 4 7 8 8 7 8 9 8 5 2 3 5 5 4 2 8 8 7 8 9 13 12 10 8 5 1 6 9 10 8 9 9 9 8 8 9 10
36 38 39 38 40 40 41 43 42 42 44 42 37 34 30 25 23 25 28 27 18 14 11 10 15 7 4 17 20 20 28 33 29 26 27 27 30 33 27 23 20 17 13 7 5 5 3 3 3 5 7 9 10 10 8 7 12 13 11 7 4 4 5 5 4 4 9 7 6 9 10 12 11 12 10 8 4 4 7 7 6 7 7 8 8 8 9 10
36 38 38 38 40 41 41 44 43 43 45 40 35 28 17 13 10 10 17 18 12 12 6 11 21 13 3 13 18 21 23 26 23 19 26 31 28 23 16 17 17 11 11 11 8 6 5 6 7 9 11 11 12 11 7 7 11 11 9 7 6 6 4 4 4 5 6 7 7 10 10 11 11 12 10 7 6 6 8 8 7 7 7 7 9 10 11 11
37 37 37 38 41 42 43 45 44 45 45 41 38 20 6 12 9 5 11 10 14 19 8 7 22 18 10 17 23 27 18 12 14 17 28 33 28 19 8 11 15 10 11 13 8 4 5 10 13 12 12 12 14 12 7 7 8 7 7 7 6 6 4 4 4 4 5 5 6 5 7 11 12 11 9 6 6 8 10 10 10 10 8 8 10 12 12 11
38 37 38 39 41 42 43 46 46 48 45 42 36 14 9 18 9 12 18 7 14 23 12 6 11 10 12 23 34 36 20 11 12 13 23 27 22 16 8 10 15 11 11 12 8 6 9 14 15 13 12 12 13 11 7 7 7 6 6 6 6 5 3 2 2 1 4 4 4 2 4 9 11 11 10 8 9 10 10 11 12 11 10 10 11 12 11 10
38 37 39 40 42 44 45 48 48 49 45 38 30 15 16 22 13 20 20 2 7 17 14 10 6 6 11 16 28 33 20 16 16 14 24 27 17 16 14 13 15 12 12 14 13 13 11 11 13 13 12 13 12 11 9 6 5 5 5 5 5 4 4 2 3 1 3 3 2 1 3 7 8 9 10 11 12 11 11 12 12 10 12 13 12 11 11 12
38 37 39 41 44 45 45 49 48 47 44 38 34 26 24 25 22 27 15 3 3 8 11 12 6 10 14 17 29 29 17 17 19 19 30 27 15 14 16 15 15 12 13 18 18 14 6 5 13 12 11 14 13 12 11 6 4 4 5 6 5 6 6 3 2 2 2 2 1 3 5 6 6 8 11 8 7 10 11 11 11 11 13 13 10 10 11 13
38 38 39 42 44 46 48 45 41 42 40 32 31 30 27 25 28 29 12 2 3 3 10 13 5 10 14 21 28 22 14 14 18 22 28 27 20 14 11 11 12 13 16 18 15 10 4 9 16 15 13 14 12 12 11 8 5 3 5 7 7 8 7 5 6 5 4 3 3 2 2 6 4 5 9 5 3 8 7 8 13 14 12 9 8 10 10 11
39 39 41 42 43 49 44 28 31 43 33 22 29 32 28 28 32 27 9 2 5 3 10 13 7 12 15 16 17 13 12 11 13 22 26 24 22 16 11 7 4 12 17 14 8 4 4 11 17 16 15 16 13 11 11 10 7 4 6 7 7 7 8 8 8 5 3 3 3 2 4 5 6 5 9 7 6 9 6 8 13 12 10 9 10 11 11 11
38 39 43 44 44 49 32 14 30 40 20 18 35 35 30 34 35 23 7 1 6 4 9 10 7 14 17 16 19 14 10 8 7 15 22 22 20 14 13 9 4 8 11 8 6 4 9 15 16 16 15 14 12 10 11 11 7 3 5 7 8 8 9 10 8 4 2 3 2 4 2 3 6 6 8 7 8 11 10 10 11 9 11 12 12 13 12 12
38 40 44 44 49 51 31 22 32 25 17 30 42 36 34 41 35 17 5 5 5 5 6 5 5 14 14 15 21 13 11 18 12 12 20 26 21 11 15 18 13 13 12 11 9 4 12 18 17 17 14 11 10 7 11 13 7 3 3 7 8 7 7 7 6 3 1 2 1 4 2 1 7 6 4 4 5 11 12 12 12 11 12 13 13 13 12 12
41 43 44 47 52 46 32 34 32 19 27 44 44 38 38 36 22 7 2 5 3 4 5 5 6 12 12 13 18 11 10 16 13 12 18 23 15 5 10 17 17 18 13 9 6 2 7 13 13 13 10 8 7 6 11 13 6 2 6 8 6 5 6 4 4 4 3 1 4 5 2 0 6 6 3 2 4 10 11 9 10 10 10 11 11 11 11 10
45 44 47 51 46 35 27 30 30 26 36 46 44 41 34 22 9 4 7 5 2 2 4 7 8 13 16 15 13 13 14 11 10 11 9 8 4 2 4 8 10 14 7 2 5 3 3 7 8 8 6 6 6 4 6 9 8 7 7 7 7 5 5 3 2 4 2 3 4 7 6 3 4 5 4 5 6 7 7 7 9 8 8 9 9 9 10 9
46 47 53 53 40 33 24 16 25 38 44 49 46 35 22 9 2 7 8 2 3 3 5 9 13 19 24 20 11 13 16 12 13 15 7 3 2 2 8 6 3 8 5 3 3 1 6 9 6 4 5 7 7 3 1 4 10 8 5 5 5 3 3 2 3 2 3 4 3 8 7 6 5 7 4 5 7 6 6 7 8 8 8 8 7 8 8 8
51 52 55 50 38 35 25 19 36 49 50 53 41 20 10 5 3 6 5 1 3 6 7 11 16 22 27 24 16 17 16 12 16 18 14 12 8 9 14 12 10 10 6 7 6 2 6 9 4 3 5 10 11 5 1 1 7 6 5 8 6 2 1 2 2 1 4 3 2 5 5 4 9 9 6 10 12 11 9 8 8 9 10 9 7 7 8 7
55 55 48 41 35 32 28 35 48 52 51 48 27 9 6 6 6 5 3 3 2 2 5 11 17 22 26 23 17 18 18 14 19 20 17 16 12 13 16 15 18 15 10 13 10 6 6 3 1 4 4 9 13 11 6 5 8 9 8 10 8 5 4 5 3 0 2 2 0 3 3 3 6 6 9 16 18 15 9 7 9 10 11 11 8 7 7 7
50 50 38 31 30 30 36 45 50 52 48 31 13 9 8 6 5 4 3 4 0 2 2 9 20 24 23 20 17 18 15 13 21 21 17 17 12 11 12 14 20 13 8 12 6 8 11 4 7 11 6 10 15 12 8 6 8 9 5 6 6 5 4 5 4 2 2 1 1 1 2 4 3 3 8 11 12 12 8 7 8 8 10 9 7 6 6 7
38 39 33 25 25 33 43 47 50 53 38 15 7 9 8 6 5 3 4 4 2 1 2 5 18 21 16 15 17 21 13 11 21 19 14 18 15 14 13 14 20 13 10 11 3 7 11 4 7 8 1 10 16 7 5 8 6 4 2 4 4 5 4 3 3 3 4 2 2 2 4 4 4 9 12 8 9 9 8 8 7 8 8 6 6 6 6 6
32 31 28 22 23 33 43 47 48 44 26 10 7 6 5 4 3 3 5 4 4 7 4 5 14 17 13 9 14 21 11 9 21 16 11 16 15 18 18 14 20 18 15 15 6 7 10 4 8 8 1 10 13 6 7 10 7 2 3 7 4 3 6 5 1 2 4 2 3 3 5 5 4 10 13 11 10 9 7 8 8 8 6 4 6 7 6 6
28 25 18 16 23 33 39 45 43 30 15 8 7 5 2 0 0 3 5 5 5 6 6 7 8 10 13 9 11 20 13 9 18 14 10 14 12 16 19 13 17 19 17 15 6 4 7 4 5 9 6 6 5 8 8 5 5 6 6 7 4 3 3 4 2 2 2 4 4 3 7 4 2 6 6 7 9 8 6 6 7 6 4 5 8 7 7 7
23 18 10 8 19 29 34 40 33 16 7 7 7 4 1 1 1 2 3 5 5 3 4 5 1 3 12 12 10 18 16 11 14 12 10 11 8 14 19 13 15 18 13 12 6 3 8 5 2 2 6 2 2 8 8 3 2 5 7 7 5 2 3 3 4 3 3 4 3 3 5 4 6 6 6 7 8 7 6 4 4 6 6 7 8 8 8 7
20 11 5 3 14 25 29 30 19 6 5 7 6 4 2 1 1 1 2 5 4 4 5 2 2 1 8 13 13 17 17 14 15 12 10 9 6 13 19 12 15 20 15 13 9 6 8 7 1 1 2 3 3 6 9 6 1 3 5 6 3 2 4 5 3 3 4 4 3 2 3 5 7 6 9 14 13 11 9 6 5 8 9 9 8 7 7 6
9 5 3 3 15 24 24 19 8 3 4 5 3 2 2 2 1 2 1 4 3 2 2 2 1 1 3 9 15 16 14 16 19 13 10 11 9 13 18 13 14 20 17 12 10 7 5 4 5 3 2 4 7 7 11 13 8 6 8 8 5 2 2 2 2 2 4 4 3 2 3 6 6 6 11 16 15 12 10 7 7 9 9 9 8 7 7 7
2 5 3 2 17 27 20 10 3 2 2 2 2 2 2 2 2 1 3 3 3 2 2 3 3 2 1 5 12 14 12 14 18 13 8 12 12 11 17 18 17 18 15 10 9 8 4 4 7 7 4 8 10 6 7 11 11 8 8 9 8 5 4 4 4 2 3 4 4 4 4 7 6 5 9 12 11 9 8 7 8 8 9 10 8 7 7 7
3 7 3 2 20 28 14 5 2 2 2 2 2 2 2 3 3 2 2 3 3 3 4 3 2 2 1 1 3 9 11 12 16 13 8 14 16 12 18 23 22 21 16 12 12 8 4 6 9 7 5 6 5 2 2 5 7 4 4 6 6 5 6 8 8 6 5 3 2 3 3 7 6 5 6 8 8 7 6 8 8 8 9 8 7 6 6 6
4 6 6 7 17 22 9 3 4 3 2 3 4 4 3 3 2 1 2 2 1 2 3 2 3 2 1 2 3 2 5 9 16 14 10 15 15 10 17 24 22 20 15 11 12 7 4 6 8 6 3 3 3 4 4 3 5 4 4 5 6 8 9 7 4 4 6 5 4 2 5 6 6 4 4 5 6 6 6 8 9 8 7 6 7 6 6 7
4 5 5 8 10 11 5 2 5 4 2 4 5 5 4 3 4 3 2 2 1 1 3 3 4 3 2 2 3 3 1 4 12 12 8 11 9 5 17 25 24 20 14 11 13 8 4 7 9 8 4 2 1 1 2 1 5 7 8 8 11 13 9 4 1 3 3 8 9 6 6 7 5 4 2 4 5 4 6 5 7 7 6 5 6 6 6 6
6 4 2 5 6 4 2 1 4 6 5 6 6 5 3 3 4 4 2 3 3 1 2 2 4 5 5 5 3 2 3 2 6 7 4 6 4 4 16 25 24 19 10 9 11 6 4 8 10 11 10 8 10 11 9 10 9 8 9 12 15 16 14 9 4 3 5 7 10 9 6 4 5 5 4 5 4 4 5 2 3 5 5 5 5 5 6 6
4 3 2 3 4 3 2 1 3 5 5 6 5 4 3 3 1 3 3 3 3 2 3 2 4 6 7 7 3 2 3 5 1 3 5 7 4 4 15 22 22 17 11 15 14 7 4 7 9 12 15 15 13 9 8 11 10 9 12 15 16 15 14 10 5 7 8 4 6 9 5 1 4 6 6 7 6 5 4 2 2 4 4 4 5 5 5 5
3 1 2 3 1 2 3 2 4 5 4 3 3 3 4 5 3 1 2 1 2 2 3 2 2 4 9 11 5 2 1 4 4 2 4 6 4 5 15 20 18 16 16 17 15 8 5 8 10 12 15 13 7 7 10 14 15 15 16 16 15 12 11 10 12 13 6 5 6 12 7 7 9 7 8 10 7 4 4 5 5 5 5 5 5 4 5 6
3 2 1 1 1 3 3 4 7 6 4 3 2 3 4 5 4 1 1 1 2 2 2 2 1 3 10 12 7 5 5 3 3 1 1 2 5 7 11 14 14 16 15 13 11 7 6 9 12 13 13 9 8 10 14 15 15 16 18 19 18 17 17 18 20 19 9 6 14 14 10 12 12 9 11 11 6 5 7 6 5 3 4 5 5 5 7 7
3 3 1 2 2 4 5 6 8 9 6 4 3 2 3 5 4 2 1 2 3 3 1 2 2 2 4 6 6 7 8 5 3 1 2 1 6 9 10 9 9 11 12 11 8 4 4 7 10 12 11 8 9 12 14 15 13 13 16 18 19 20 22 22 23 22 14 11 18 14 10 15 13 11 13 9 4 7 6 2 1 3 5 6 7 8 8 8
3 3 1 3 4 5 7 7 7 7 5 4 3 2 2 4 4 3 2 2 2 2 2 3 5 5 4 1 4 7 6 6 9 7 3 3 5 7 8 7 6 7 8 10 7 3 4 7 10 11 9 6 8 11 14 16 15 14 15 17 17 17 19 19 19 17 12 14 22 19 15 16 10 9 10 8 8 10 7 4 4 6 8 8 7 8 8 8
3 2 3 5 4 4 5 5 5 6 3 2 3 3 2 3 4 3 2 2 2 1 2 5 6 5 5 4 6 6 1 2 9 10 8 5 2 2 2 4 8 11 8 7 7 6 5 6 7 9 7 6 8 11 14 15 13 13 15 17 17 17 17 18 19 18 16 18 22 19 16 16 8 7 9 9 10 13 14 13 11 10 10 9 8 9 9 9
3 3 4 5 4 3 3 4 4 4 2 1 3 5 3 4 6 5 3 3 2 4 5 6 5 3 4 5 7 5 1 3 7 6 7 8 4 3 3 2 6 12 11 9 7 6 7 7 6 8 9 8 9 11 12 11 9 10 15 19 22 22 21 21 20 20 18 16 15 15 17 14 6 8 10 10 11 14 15 14 14 15 13 11 10 11 11 11
Wind_Direction
232 232 231 232 236 238 240 239 234 231 235 238 235 232 231 232 232 233 226 212 214 222 222 223 226 232 237 240 240 231 220 212 203 194 201 210 208 202 196 201 197 185 180 177 172 160 153 159 162 155 143 130 25 119 342 340 67 61 99 139 186 191 201 194 181 198 189 185 206 219 171 134 147 200 166 49 63 74 47 23 4 11 21 139 158 151 156 160
233 232 231 230 233 237 237 239 237 232 233 237 236 233 232 231 231 232 229 217 215 219 222 227 228 231 239 241 235 225 216 210 202 201 217 217 208 204 198 198 195 186 183 177 174 164 153 159 157 145 123 103 326 72 21 306 73 97 128 139 203 195 204 206 182 197 203 185 190 197 161 138 156 170 140 119 133 114 81 13 359 35 37 81 126 142 152 157
234 232 232 230 231 236 235 236 237 233 231 235 236 233 231 233 230 230 231 222 217 220 221 225 227 228 232 233 226 218 207 202 205 216 222 217 203 204 200 198 195 187 187 184 181 175 166 161 153 140 92 87 338 65 63 289 47 146 122 133 218 199 179 238 202 174 206 172 144 170 140 128 168 171 143 148 160 153 146 172 76 104 140 120 132 145 153 158
235 232 232 230 229 233 234 235 235 233 231 232 234 232 230 231 229 229 231 224 219 219 218 218 219 221 224 224 224 216 197 196 218 215 220 215 200 201 200 198 194 189 191 188 184 177 164 152 146 130 94 118 62 84 155 243 214 155 130 173 211 143 131 246 252 184 60 131 139 181 100 115 196 165 141 144 146 207 223 202 188 180 170 155 153 155 160 165
236 233 234 231 227 229 233 234 233 233 231 230 231 231 230 229 228 226 228 227 221 216 213 213 215 219 223 226 231 216 192 226 207 205 215 212 201 199 197 198 194 189 189 183 175 164 153 142 131 96 79 127 115 115 217 233 158 160 195 202 196 128 149 242 247 222 87 114 109 124 126 139 208 113 152 149 155 221 222 208 197 174 165 164 165 164 167 173
237 236 236 234 229 227 231 232 231 231 231 230 228 229 229 227 226 223 224 225 222 218 211 210 214 217 219 222 220 200 198 242 169 200 211 207 201 199 194 197 195 191 185 173 164 153 146 134 131 130 102 136 162 167 197 204 156 191 227 221 204 163 163 218 227 128 99 107 104 148 181 358 63 171 184 162 185 225 218 197 187 174 169 165 162 164 171 179
238 239 238 236 233 229 229 230 229 229 231 230 226 227 227 226 225 222 223 223 224 220 211 207 210 213 209 204 197 192 214 245 227 208 208 203 200 198 194 196 196 192 183 167 159 153 148 145 155 151 125 140 179 185 168 158 155 193 218 220 196 176 169 185 159 110 99 114 142 163 140 12 175 185 160 197 226 236 243 199 170 168 163 159 161 171 179 183
239 240 238 236 234 231 228 229 228 226 230 230 225 225 225 226 225 221 222 223 225 220 210 204 203 204 195 178 171 196 240 230 245 237 204 198 197 193 192 195 195 191 181 171 164 159 154 158 166 147 145 181 173 174 157 133 154 217 217 216 163 154 205 194 130 122 123 136 129 90 110 245 218 181 119 242 250 243 242 176 151 155 154 162 172 180 184 186
238 240 238 235 232 230 227 227 227 224 228 229 224 223 223 224 223 220 221 222 224 219 211 200 196 195 189 173 162 212 232 215 228 272 202 193 191 190 189 192 192 188 180 176 171 164 160 169 176 157 156 184 162 159 167 163 212 217 204 187 127 132 239 191 146 176 189 191 127 97 279 271 237 192 257 247 245 238 159 132 146 151 158 175 180 184 187 188
237 239 239 236 231 229 226 224 225 223 224 227 224 221 222 223 220 218 219 220 222 217 210 197 188 182 176 164 162 220 232 215 226 262 200 188 184 184 186 190 189 184 179 175 173 169 170 169 159 138 114 132 174 158 173 188 200 196 181 132 117 131 290 79 251 238 223 250 193 187 257 279 275 202 248 261 245 160 115 136 158 157 170 184 184 189 190 192
238 239 238 235 232 228 224 222 223 222 223 225 223 220 221 222 219 217 218 219 218 214 210 194 182 176 167 158 190 222 238 228 238 233 191 183 179 179 183 188 186 183 177 169 175 176 174 158 134 106 82 164 175 145 191 202 158 173 160 100 119 135 14 312 295 265 184 259 191 175 258 280 309 215 224 251 234 150 146 156 170 172 180 187 188 192 192 198
238 238 236 234 231 227 224 221 220 220 221 223 222 220 220 220 219 217 217 219 216 212 207 189 179 175 163 163 215 216 219 230 234 215 185 180 178 179 181 184 186 184 177 165 174 179 173 156 140 118 159 168 151 137 205 194 141 163 156 140 191 148 267 237 259 237 174 220 182 145 305 272 228 217 224 231 180 147 160 165 179 188 189 190 191 192 196 203
236 236 235 233 230 225 222 218 217 219 220 221 220 219 219 218 218 216 215 217 215 212 207 187 177 171 158 190 224 209 206 218 223 210 186 179 176 178 180 183 185 185 182 171 168 177 172 161 153 139 135 146 162 173 151 135 122 148 158 152 163 20 278 219 210 202 178 200 163 136 280 258 226 227 228 219 168 148 168 181 188 195 196 196 194 194 201 203
234 235 234 231 229 224 221 217 215 216 218 220 220 219 218 215 217 215 211 215 212 209 209 188 172 167 168 210 218 200 204 211 218 209 186 175 168 169 176 180 181 182 181 168 152 157 162 156 146 119 98 137 176 154 103 87 109 133 147 141 149 185 263 236 202 184 183 208 148 136 246 255 250 249 235 212 174 165 181 197 196 197 199 198 198 200 205 204
234 234 232 230 226 221 221 217 212 214 217 219 218 217 216 213 215 211 207 212 211 207 209 192 172 163 185 230 161 192 200 204 212 204 189 175 163 156 166 167 167 169 164 153 137 132 141 140 129 113 115 102 108 113 103 83 88 140 157 171 198 204 251 282 224 186 193 220 150 147 233 269 260 256 253 196 175 181 192 204 203 201 201 198 202 204 208 211
234 233 230 228 224 220 220 214 209 211 216 217 216 215 212 210 211 208 204 207 210 205 203 198 177 164 181 216 162 181 189 198 208 202 190 178 167 155 151 146 140 143 141 135 131 125 124 121 110 127 112 106 130 120 113 114 161 195 172 166 204 208 223 292 271 204 190 167 179 192 226 290 261 253 287 161 179 196 207 212 209 206 207 203 202 206 209 213
235 233 229 226 221 218 217 211 205 207 213 214 211 212 209 206 206 204 203 204 207 204 201 200 179 167 177 163 153 172 180 193 204 197 189 183 171 155 145 137 125 129 124 115 128 126 101 95 120 175 89 130 157 141 153 172 178 188 178 191 223 206 186 218 280 242 175 161 204 215 231 251 249 266 318 356 175 196 216 218 212 209 212 209 205 207 211 212
235 233 229 224 220 216 212 207 203 206 210 209 208 210 204 198 199 199 197 194 197 202 204 198 175 170 195 163 166 182 178 180 192 192 187 182 169 157 149 139 126 124 119 110 139 133 51 31 96 130 128 173 176 171 180 181 173 176 188 202 228 203 194 206 244 217 166 182 209 207 236 245 255 279 294 305 195 188 223 226 219 217 214 214 210 209 212 213
234 234 228 221 218 213 208 203 202 204 204 205 203 198 193 187 190 193 188 180 180 200 202 177 177 197 202 176 174 171 172 174 180 189 184 173 164 156 145 136 134 133 139 160 178 161 140 97 115 166 180 187 184 186 185 169 174 183 187 182 163 179 221 221 230 222 169 178 216 209 231 244 255 267 266 276 265 217 243 244 237 231 223 220 216 217 216 214
235 232 223 218 215 209 203 199 199 199 199 198 186 177 178 173 172 188 184 177 189 209 182 148 186 207 152 159 153 142 156 164 166 184 183 169 156 144 134 136 139 146 162 167 169 170 157 162 192 192 183 180 180 190 190 165 180 188 175 173 181 184 234 233 225 246 171 164 225 220 235 249 250 256 256 269 280 265 257 250 243 234 226 224 220 223 220 218
233 227 217 215 211 204 199 196 196 195 194 188 173 168 182 173 170 165 166 182 207 212 221 169 195 206 154 147 151 141 138 150 165 187 183 168 150 142 151 150 149 169 176 157 140 135 169 194 203 190 174 173 180 190 180 159 182 192 170 174 197 197 226 235 222 242 177 175 250 244 247 256 256 261 263 267 268 255 243 242 243 233 225 222 221 225 223 225
231 224 214 211 207 202 197 195 195 190 187 180 174 180 195 183 185 164 160 178 211 210 227 209 211 221 155 157 166 157 143 148 174 193 181 167 156 157 172 164 164 177 166 146 131 150 195 210 195 173 167 171 183 187 161 145 167 186 179 172 196 208 214 275 302 255 166 187 262 276 250 258 261 262 260 249 244 244 235 232 236 231 226 225 221 224 224 229
228 221 212 209 203 199 197 194 191 184 178 175 178 189 191 191 184 160 159 123 214 208 218 203 199 196 160 159 168 162 151 155 167 193 184 173 168 166 164 170 172 162 158 167 171 177 202 210 177 159 164 170 180 187 167 143 157 180 178 169 196 199 171 229 284 177 151 181 232 305 289 271 264 264 259 241 233 241 238 234 237 231 227 228 222 217 216 220
223 216 211 206 199 197 194 188 184 179 175 176 182 186 185 188 173 158 150 28 216 204 205 202 201 190 174 156 164 165 162 165 164 182 187 177 164 161 163 168 166 160 173 183 183 186 196 157 151 154 166 172 176 185 180 162 168 195 183 179 194 189 180 184 158 122 17 327 359 9 321 286 255 253 257 246 235 243 239 236 244 239 232 234 229 221 219 217
217 209 205 199 196 194 188 182 180 177 175 176 185 185 178 176 169 161 141 39 224 191 183 193 224 215 178 151 163 164 154 172 172 175 185 180 161 153 165 168 164 172 180 180 181 191 176 139 151 161 171 177 180 186 186 174 173 212 213 198 184 177 173 137 124 98 46 306 310 32 300 287 286 264 262 270 273 255 239 228 238 241 236 234 234 230 226 224
211 206 201 193 192 188 181 180 180 174 170 177 185 181 172 168 168 162 126 40 224 193 166 174 193 202 176 151 157 148 149 181 177 170 179 179 165 153 158 161 161 178 174 169 178 198 174 159 162 167 172 176 185 193 190 176 163 203 226 195 159 144 139 136 142 117 114 227 298 73 184 267 307 285 267 275 274 266 257 237 240 244 239 227 226 229 224 222
205 203 197 191 188 181 174 169 169 167 166 179 177 170 163 165 166 157 123 269 216 172 159 167 176 179 171 158 152 146 155 152 137 174 181 174 167 155 154 158 154 171 162 156 191 194 161 164 169 172 171 177 190 194 187 176 166 217 221 164 131 122 141 152 149 130 165 194 346 23 128 265 289 264 262 278 281 276 271 258 251 242 236 231 226 227 223 219
201 197 193 190 184 178 172 159 160 165 169 166 162 155 152 159 162 153 149 214 181 127 152 166 154 162 163 162 160 156 148 140 141 192 187 173 170 161 166 173 166 163 165 173 192 177 158 170 174 171 173 184 189 175 166 168 175 230 182 144 136 130 141 145 130 110 68 114 281 310 70 269 275 265 272 291 270 267 264 257 253 240 233 234 231 229 224 220
198 192 190 186 180 177 173 162 162 168 164 158 154 151 149 148 148 133 186 211 150 108 154 152 144 157 159 164 167 160 143 151 160 177 179 177 179 189 177 173 160 156 169 181 176 147 160 172 167 165 179 187 165 138 155 165 177 168 118 99 87 89 90 94 114 106 57 78 226 231 137 200 272 255 239 253 242 249 252 252 254 248 241 236 235 235 226 220
193 188 185 179 173 169 163 160 164 163 158 157 155 152 146 136 125 162 198 199 125 117 163 157 152 153 160 168 170 161 155 159 150 147 166 175 180 313 137 142 141 148 149 81 136 154 117 134 150 165 185 170 135 115 152 162 151 125 105 83 68 54 51 57 63 83 101 257 219 193 169 131 287 263 213 219 235 235 238 252 260 261 259 247 237 234 225 216
187 184 178 172 166 159 153 151 158 158 158 158 154 148 141 132 145 190 194 168 93 163 169 158 154 155 166 173 166 162 163 157 146 150 160 139 128 147 132 126 121 135 118 69 128 131 112 139 170 178 162 142 129 118 17 141 145 129 113 115 101 39 24 38 11 64 199 241 203 182 161 136 231 258 234 239 258 246 226 237 257 265 267 258 244 241 231 217
179 176 171 167 162 157 157 152 152 154 156 155 152 147 145 154 203 188 184 117 140 190 178 159 158 161 170 174 168 167 165 158 158 161 166 161 160 168 162 167 166 150 155 168 164 132 142 167 174 100 155 156 149 157 5 132 161 147 139 148 148 144 159 190 208 175 213 248 199 168 141 165 235 256 270 265 262 251 233 226 245 261 268 268 259 251 242 221
167 164 164 163 161 158 156 152 150 151 153 152 150 152 164 181 196 176 168 177 162 199 176 160 158 161 169 172 171 170 164 163 168 165 167 168 166 176 177 175 172 170 170 167 162 149 159 212 174 130 171 173 168 174 179 188 184 174 166 167 169 162 179 197 187 196 221 235 259 150 135 259 272 277 254 249 253 256 252 235 237 246 255 262 264 261 252 233
154 153 152 154 157 156 153 151 152 152 150 150 150 159 173 194 182 137 143 190 112 359 228 167 157 161 172 173 166 167 165 168 171 166 166 168 168 180 180 179 182 178 145 153 163 157 164 210 190 175 180 178 184 187 167 152 173 182 168 154 165 167 183 190 177 200 193 138 324 186 181 205 208 259 242 234 252 266 266 255 254 258 254 253 267 276 261 239
143 141 140 138 140 148 151 153 154 153 150 150 158 167 181 185 164 143 161 169 131 111 308 181 161 162 175 175 166 171 172 167 169 167 169 171 171 174 174 183 187 174 140 155 172 167 177 222 178 170 181 175 182 186 116 123 162 204 140 139 184 178 149 135 165 165 127 113 253 212 230 217 206 279 280 259 249 254 258 265 270 268 258 241 251 263 256 245
128 126 133 129 133 148 153 154 156 155 150 150 162 177 189 168 156 163 155 147 161 163 147 166 169 167 174 176 170 175 179 166 167 166 173 176 176 175 174 183 185 175 165 164 154 168 183 194 164 157 183 181 174 159 150 158 164 171 169 179 190 138 119 114 141 67 88 181 233 206 245 288 317 284 282 276 266 256 243 244 245 248 239 208 228 242 247 251
119 118 125 124 141 155 157 156 159 158 149 151 172 178 163 132 189 137 140 150 167 166 154 164 177 173 171 172 174 174 167 156 168 168 169 175 180 179 175 179 186 184 176 164 154 177 165 145 174 167 169 197 169 139 161 185 152 148 189 187 134 72 90 111 129 36 88 218 259 235 234 266 287 262 292 309 290 274 242 232 248 252 220 206 227 232 235 247
116 115 101 103 145 155 157 157 159 158 147 162 178 170 111 342 172 119 132 146 142 152 169 173 220 192 172 168 172 173 163 156 173 171 165 172 180 177 172 174 187 190 178 154 146 159 141 112 339 172 151 171 70 127 159 243 225 162 181 172 138 161 207 159 155 183 189 216 274 281 252 235 208 229 281 282 267 269 270 268 267 251 224 219 230 230 235 251
116 113 69 70 147 152 152 153 151 133 147 174 181 180 158 108 82 17 116 138 138 163 175 175 343 287 182 171 165 171 169 165 170 170 171 178 173 176 177 173 181 186 174 151 152 162 144 129 131 253 131 133 139 166 184 203 264 87 147 170 168 183 192 180 166 163 173 196 236 295 302 252 221 218 242 249 250 252 256 259 245 236 229 226 224 220 225 233
116 114 63 101 152 154 146 139 129 90 142 169 165 145 106 111 157 336 53 124 136 173 179 186 166 114 194 177 166 170 172 167 170 172 179 177 161 173 184 179 176 180 166 145 148 153 142 140 154 140 68 149 176 201 198 187 176 160 169 183 189 144 109 169 177 124 136 166 192 220 267 259 245 212 219 235 245 244 241 241 239 237 234 234 227 214 213 219
103 110 62 106 156 154 139 119 111 87 107 111 94 111 99 117 140 38 33 87 94 84 110 130 147 117 166 182 171 171 170 167 174 177 176 177 169 173 186 181 172 168 155 137 149 155 149 152 149 144 163 184 190 216 217 195 184 180 184 187 186 166 128 166 208 181 149 169 171 176 241 263 251 212 216 230 241 243 228 217 230 240 236 236 232 219 212 215
81 109 74 112 152 150 131 93 125 102 82 121 109 109 106 95 97 53 22 61 87 106 107 108 132 106 54 328 168 169 169 167 176 179 175 183 186 183 181 178 169 166 162 153 160 156 108 122 141 149 169 179 192 274 279 168 150 146 193 188 174 168 162 183 211 197 178 191 142 143 258 274 256 219 213 229 243 250 228 208 225 243 237 233 236 235 228 227
62 100 88 92 140 146 127 84 126 102 72 115 88 62 60 61 57 44 36 48 80 131 110 127 165 135 44 359 16 131 174 173 177 180 174 182 192 185 170 169 163 165 168 156 156 150 85 120 137 130 105 54 20 356 16 78 119 143 203 180 171 195 193 187 201 175 179 200 176 182 256 266 274 263 226 245 263 256 232 210 217 238 247 241 241 240 233 233
88 95 82 72 111 136 132 124 138 131 114 105 94 80 65 47 37 32 65 60 21 127 121 140 163 161 141 99 43 24 336 181 178 182 172 175 191 168 161 166 164 169 178 169 166 170 158 153 143 135 134 74 60 2 6 218 194 196 203 193 193 198 185 160 134 122 193 208 181 185 237 243 272 306 280 288 304 266 243 221 211 231 239 225 227 236 232 230
102 76 71 55 57 92 124 168 131 130 129 118 111 108 96 64 31 13 63 71 16 83 126 131 145 142 134 117 64 17 353 15 172 179 146 146 174 167 164 168 169 175 176 146 147 140 128 156 159 159 165 172 186 195 192 189 195 197 195 195 200 196 185 187 189 160 218 211 177 189 230 254 289 306 303 304 295 242 242 247 209 230 231 213 216 224 219 217
111 77 123 90 23 50 70 37 107 116 128 126 113 106 102 106 57 349 33 59 3 37 73 83 126 130 139 142 117 48 1 357 28 155 134 141 154 179 171 170 173 173 145 130 139 119 104 168 178 177 182 188 191 186 168 170 182 190 191 195 202 199 192 193 199 209 212 181 185 215 220 247 271 267 270 276 257 225 236 268 258 257 253 239 234 230 225 231
102 83 133 126 101 97 84 100 120 116 129 129 109 119 117 117 126 352 9 29 345 32 46 42 117 150 161 158 142 110 80 5 0 59 121 139 133 153 171 173 173 163 140 142 154 131 119 179 181 184 195 193 166 132 145 167 184 192 190 193 198 196 191 197 215 220 181 93 240 234 198 207 236 234 241 247 237 238 263 254 250 257 254 249 253 259 257 257
99 95 105 99 111 117 117 145 140 117 100 79 63 112 115 104 106 88 59 76 23 11 32 37 35 182 171 163 154 148 139 69 7 354 43 122 123 135 165 178 176 162 145 153 168 140 141 183 179 181 189 175 145 152 167 178 190 194 191 191 191 189 193 203 219 222 185 169 238 230 188 214 228 218 233 236 205 210 235 235 229 218 235 250 251 250 248 248
101 94 24 9 61 96 95 114 126 113 99 86 60 75 106 109 105 89 86 84 30 349 2 111 111 116 151 164 155 156 163 156 164 260 332 171 150 145 160 176 182 169 152 157 173 160 162 176 170 173 176 167 165 168 171 180 190 194 196 197 193 192 199 206 217 223 209 217 247 242 218 232 228 207 229 247 229 219 215 196 189 199 229 237 226 230 237 236
115 123 113 64 76 96 98 106 120 113 92 78 81 75 92 111 114 95 50 74 76 347 9 101 115 89 64 44 127 145 176 172 159 166 178 181 170 164 169 168 165 168 161 160 168 196 197 170 160 165 170 185 186 169 170 182 189 193 198 200 195 196 206 214 222 227 216 227 245 245 240 246 232 186 208 234 247 246 239 223 221 227 240 238 229 237 240 238
104 136 127 105 84 76 103 114 112 107 87 55 98 128 117 123 147 136 67 27 86 117 103 117 120 94 67 72 100 111 85 105 132 145 150 146 151 173 188 182 166 163 161 158 164 182 182 157 149 156 169 200 197 176 175 179 185 197 202 199 193 195 204 211 216 216 206 215 234 240 244 249 228 167 190 205 216 235 247 250 250 249 245 237 237 245 243 240
63 76 78 96 85 43 81 96 80 102 141 203 137 140 144 168 174 152 95 29 67 118 132 131 124 93 87 101 106 113 118 94 103 111 118 114 93 58 38 56 154 162 164 163 163 165 156 145 147 162 178 199 192 176 171 164 172 207 209 198 194 198 204 209 216 218 209 210 223 229 237 241 191 165 204 208 200 214 228 236 246 253 253 251 255 260 263 259
Height
739 741 744 746 749 750 752 754 756 758 759 760 762 765 767 768 769 771 772 774 777 780 782 784 787 790 792 793 795 795 796 796 797 800 798 795 797 799 802 805 807 808 809 810 811 813 816 819 819 820 821 824 827 828 828 828 828 832 838 847 853 853 849 843 844 845 841 839 837 836 834 836 840 838 835 836 838 841 843 843 843 841 840 839 838 839 843 847
736 738 740 743 745 747 749 751 753 755 757 757 759 761 763 765 767 768 770 772 775 778 779 781 785 788 791 793 794 795 796 796 798 799 793 792 796 799 802 805 806 807 808 809 809 810 813 817 818 820 822 827 830 829 830 829 829 835 841 847 849 846 842 839 838 839 838 837 836 835 834 834 837 836 835 839 844 843 844 847 846 844 843 841 840 841 844 847
732 735 737 739 742 744 746 748 750 752 754 755 755 758 760 762 764 766 768 770 772 775 776 779 783 786 790 792 795 796 796 798 800 795 788 790 796 798 801 804 805 806 807 807 808 808 810 814 817 820 824 829 830 830 832 831 831 835 841 846 844 838 838 838 836 836 836 835 836 836 834 834 835 834 834 838 845 844 843 846 846 847 847 845 843 843 845 847
728 731 733 736 738 741 743 745 747 749 751 753 753 755 758 759 762 763 765 767 770 773 774 777 780 785 788 792 797 798 799 802 795 786 785 789 794 797 800 803 805 806 807 807 808 810 811 813 817 820 825 831 832 832 834 833 833 836 838 842 838 835 837 836 835 835 835 835 836 836 835 836 834 834 834 837 844 845 842 840 838 840 844 845 845 844 845 847
724 727 730 732 735 737 740 742 743 745 748 750 751 753 755 757 760 762 764 765 768 771 773 775 779 782 786 791 797 800 807 805 785 778 783 787 792 795 799 802 804 806 807 808 809 811 812 813 817 821 826 832 835 835 836 832 833 837 837 837 834 835 836 834 834 835 834 835 835 836 837 836 834 834 834 835 840 840 835 834 833 834 838 840 842 844 845 846
720 722 726 728 731 734 736 738 740 742 744 746 749 750 752 755 757 760 762 764 767 769 771 774 777 781 785 790 796 802 809 797 776 775 780 784 790 794 797 801 803 805 806 807 808 810 812 814 818 823 828 832 836 835 835 833 833 838 838 835 835 835 834 833 833 834 834 834 835 837 836 835 835 835 834 834 834 831 827 827 830 831 833 835 838 842 844 845
715 718 721 724 727 730 732 735 737 739 740 743 746 747 750 752 755 758 760 762 764 767 770 772 776 779 783 789 796 803 804 788 774 775 777 781 788 791 797 800 802 805 805 806 807 809 811 814 818 823 828 833 836 834 833 832 833 838 839 835 834 834 833 833 833 833 833 834 835 835 835 836 836 835 835 833 830 827 826 825 827 830 833 836 838 840 840 842
712 714 717 721 723 726 729 731 733 736 736 739 743 745 747 750 752 755 757 760 761 765 769 770 774 777 782 788 795 803 798 784 777 776 775 779 786 790 795 798 801 803 804 805 805 806 810 814 817 821 828 832 832 833 833 834 837 838 838 835 834 834 833 833 833 833 833 833 835 835 835 836 835 835 835 832 827 825 826 826 828 831 834 836 837 838 839 840
708 710 713 716 719 722 725 727 730 732 733 735 739 742 744 747 750 753 755 757 760 764 766 768 770 774 780 786 795 799 784 776 778 777 775 776 782 788 792 795 799 801 803 804 804 806 809 813 815 817 824 829 829 832 832 836 840 836 834 834 834 834 833 834 834 833 834 834 834 836 836 835 834 835 834 828 825 825 826 827 828 831 834 835 836 837 838 839
704 706 709 712 715 718 721 724 726 729 730 732 735 738 741 744 747 750 753 755 759 762 765 766 767 773 780 784 796 791 771 773 780 776 775 776 779 785 789 792 796 799 802 803 804 805 807 810 814 814 820 827 829 832 833 834 836 832 833 833 833 835 833 835 835 834 835 834 834 836 837 834 833 836 835 826 823 826 827 829 830 831 833 834 834 835 836 837
700 702 705 708 711 714 717 720 722 725 727 728 732 735 738 741 744 748 750 753 756 760 764 764 764 770 776 783 790 779 767 777 782 777 776 775 777 781 784 790 793 797 800 802 804 804 805 809 811 814 822 828 829 833 834 831 831 831 833 835 835 835 835 835 836 836 836 835 834 835 836 835 835 837 832 824 823 826 827 830 832 831 832 832 833 834 835 835
696 698 701 704 707 710 713 716 719 722 723 725 729 732 735 739 742 745 748 751 754 758 761 760 761 765 773 781 776 767 769 779 782 781 778 775 777 778 782 788 791 795 797 800 803 804 806 808 809 815 821 826 832 836 834 828 830 831 833 839 840 838 838 837 836 836 835 835 832 835 840 836 834 833 826 822 823 826 827 829 831 831 830 830 831 832 833 833
692 694 697 700 703 706 709 712 715 718 719 722 726 729 733 736 739 743 746 749 751 755 759 758 758 762 773 775 763 763 773 778 783 785 780 777 779 780 783 786 790 795 796 798 801 803 805 806 809 815 818 825 833 830 826 825 829 834 836 840 844 846 844 835 835 836 835 835 829 837 847 836 828 826 821 820 822 825 827 828 830 830 829 830 830 831 831 831
687 690 693 696 699 702 705 709 712 714 716 719 723 726 730 734 737 740 743 747 749 753 756 756 755 762 771 767 760 767 772 776 784 785 781 779 779 782 785 786 791 795 796 798 800 802 805 806 810 815 819 825 827 823 825 830 832 836 841 842 846 854 847 832 832 835 836 836 828 838 850 835 825 823 818 819 821 823 825 826 827 828 828 829 829 830 829 829
683 686 689 691 695 699 701 705 709 711 713 715 720 724 727 731 735 738 742 745 748 752 756 756 753 760 769 765 761 767 771 777 782 782 780 777 776 780 783 787 792 795 798 800 801 804 805 805 810 817 822 824 824 827 832 836 835 836 844 850 850 852 846 832 829 831 834 835 830 838 848 836 826 820 815 819 821 821 823 824 825 825 826 827 827 828 827 826
679 681 684 687 691 694 697 701 705 708 710 713 718 722 725 730 733 737 741 744 749 752 755 755 749 753 764 763 761 765 770 775 778 780 780 776 773 776 781 786 791 796 800 801 803 804 804 806 813 818 823 826 828 832 838 842 842 838 842 850 850 849 848 838 830 828 828 832 833 836 840 833 824 818 816 819 820 821 821 821 823 824 824 824 824 825 825 825
674 677 680 683 687 690 694 698 702 705 707 711 716 721 724 728 732 736 741 745 748 751 752 751 749 752 757 757 759 763 766 771 776 779 778 776 774 774 777 784 791 796 799 803 804 805 806 810 817 820 822 827 829 832 842 849 848 844 844 846 846 846 848 843 832 827 827 831 834 835 836 830 821 816 817 818 820 821 821 819 820 821 821 821 822 823 823 823
670 673 676 679 682 686 690 694 698 702 705 709 714 719 724 728 733 736 740 744 748 753 752 750 751 753 752 751 754 756 758 765 774 777 776 775 775 773 774 780 788 794 801 807 806 806 811 814 819 825 827 829 828 828 836 842 840 842 844 845 845 844 845 842 833 828 829 831 834 837 837 831 823 819 817 817 819 821 820 818 818 819 819 819 820 821 820 820
665 668 671 675 678 682 686 690 695 699 702 708 714 720 726 730 734 735 737 740 742 743 740 739 743 740 736 738 744 750 754 760 770 776 775 773 774 774 775 780 785 792 802 810 810 809 811 817 824 826 827 826 824 823 825 827 828 831 836 839 842 842 842 839 830 826 827 832 835 836 834 830 826 822 818 816 818 819 819 817 817 817 818 818 818 818 817 817
661 664 667 670 674 678 682 686 691 696 700 706 712 719 722 724 729 732 732 733 732 727 725 728 729 726 727 734 740 748 755 761 768 774 773 771 772 775 778 780 786 795 801 806 811 808 809 819 822 817 819 821 821 820 819 820 823 827 834 838 838 838 837 833 830 825 824 831 834 831 831 830 826 822 818 818 818 818 817 815 815 815 816 816 816 815 814 813
656 660 663 665 669 673 678 683 687 692 698 703 707 711 710 710 714 716 722 729 728 723 724 726 724 722 726 732 736 741 752 763 769 770 771 770 769 775 781 782 790 799 799 801 809 810 812 816 812 808 812 817 818 818 818 821 826 830 834 837 838 837 833 830 829 826 824 830 832 830 833 831 825 822 819 819 819 816 813 813 812 811 812 813 812 811 810 808
652 655 658 661 665 669 674 679 684 689 696 700 703 703 700 700 701 702 710 722 723 721 724 727 728 728 728 730 735 737 745 760 770 771 771 769 767 773 781 783 788 795 796 800 808 816 816 807 801 804 809 814 816 816 818 823 827 832 834 836 839 837 834 831 829 828 827 831 831 831 833 831 825 821 819 818 816 812 810 809 807 807 808 808 807 806 807 806
647 649 653 657 660 665 670 675 681 687 692 695 696 696 696 698 701 702 708 718 722 721 723 725 730 733 731 732 736 739 743 752 765 772 768 765 764 766 774 781 785 791 796 799 802 810 810 799 797 803 807 813 818 817 819 823 828 831 834 837 837 835 834 833 832 831 829 831 832 831 832 828 822 818 814 812 811 807 805 804 803 803 802 801 801 801 802 803
642 646 650 653 657 662 667 673 680 683 686 689 690 691 694 698 702 705 709 719 722 720 722 725 728 729 726 726 729 734 739 742 751 761 760 758 760 763 769 775 783 791 794 792 794 800 802 796 797 804 808 812 817 818 820 825 831 831 831 834 832 831 831 829 830 832 831 832 830 831 834 826 817 817 810 804 807 805 802 802 801 800 797 796 797 798 797 797
637 642 645 649 654 658 665 672 675 677 682 688 689 690 695 698 703 705 709 720 722 719 723 725 727 725 720 722 726 727 735 739 740 747 751 749 752 761 769 770 778 789 791 791 796 801 801 795 795 804 809 811 815 818 819 824 832 833 829 825 824 825 827 828 830 833 839 839 832 835 842 829 815 815 810 804 808 805 801 802 798 794 794 795 797 795 795 794
633 638 641 645 650 654 663 667 669 675 682 686 686 690 694 697 703 705 711 726 724 716 719 722 722 720 715 721 726 730 741 744 739 742 747 749 747 752 766 771 774 782 786 791 797 799 799 794 793 802 808 810 815 817 817 819 830 834 824 818 821 822 825 830 829 831 841 844 836 837 844 836 821 812 805 803 805 803 801 800 795 792 792 792 793 791 790 791
629 633 637 641 646 651 656 659 665 673 677 680 683 689 692 695 703 705 716 734 723 707 711 717 716 712 710 717 720 728 740 740 744 748 745 748 749 749 764 773 774 779 781 790 800 795 792 794 796 801 806 810 814 814 813 816 827 829 818 817 822 821 824 829 829 831 838 841 841 839 841 843 832 813 803 802 803 800 798 796 793 792 789 786 786 785 785 786
625 629 633 638 643 647 650 653 661 666 669 674 679 687 690 693 701 706 721 728 706 694 703 708 710 708 710 717 716 720 725 726 740 750 743 744 748 748 759 766 769 777 778 785 795 790 785 791 794 797 804 809 809 807 808 813 822 823 817 819 820 819 825 829 830 835 839 841 844 842 842 846 833 811 804 804 802 798 792 788 786 785 785 782 781 780 780 782
621 626 631 636 643 648 651 652 657 662 667 672 678 685 688 693 701 709 720 712 688 687 696 699 706 709 713 718 717 719 722 722 729 739 741 744 745 746 754 758 762 773 777 780 789 791 786 786 789 796 803 805 804 804 805 809 816 819 818 820 822 825 831 834 835 836 841 845 845 844 843 845 831 807 803 805 801 795 787 782 780 778 780 779 778 778 777 779
618 623 628 635 642 648 651 654 658 662 667 674 680 684 687 695 704 708 709 695 682 689 692 693 700 705 712 717 717 721 724 726 728 736 745 745 746 748 750 755 762 773 782 785 791 792 786 785 789 793 798 800 801 804 805 807 811 815 818 821 828 832 832 837 838 837 845 848 843 840 838 843 837 811 801 802 793 788 785 781 778 776 776 776 775 776 775 776
616 621 626 633 638 641 646 652 657 660 666 674 680 685 690 701 708 702 692 682 682 691 689 691 696 698 705 709 713 720 723 725 728 737 747 750 755 755 752 762 771 778 790 794 794 793 788 791 792 789 791 794 800 807 808 807 808 810 816 822 832 839 838 841 844 843 850 848 840 838 835 843 842 811 794 795 788 786 786 781 777 774 774 774 773 773 772 773
613 619 625 631 635 639 642 647 651 656 664 671 677 685 691 702 703 690 683 682 684 688 684 686 691 693 700 704 708 715 719 725 727 731 740 746 754 753 746 754 760 769 787 793 794 797 794 793 790 788 790 790 799 812 815 814 811 810 816 822 832 847 848 848 851 849 849 845 839 840 839 839 828 800 789 791 784 782 783 781 778 774 772 771 772 772 770 770
611 618 626 632 635 639 642 646 650 655 662 668 674 683 689 694 689 676 681 686 684 684 681 680 684 690 697 701 706 710 715 721 723 726 733 738 747 748 740 741 741 744 761 776 786 795 798 798 793 793 793 788 793 806 813 815 812 810 813 816 827 843 848 848 850 848 846 844 841 843 842 836 818 794 784 781 773 771 774 776 776 774 771 769 769 770 769 769
612 618 625 632 634 638 642 647 651 653 660 666 672 681 685 684 678 674 684 689 688 689 685 678 681 688 692 694 699 704 710 718 719 721 729 735 743 748 745 745 740 736 748 769 780 784 789 794 790 788 789 785 786 792 796 802 806 806 805 808 816 825 832 838 841 841 844 845 846 847 840 827 810 789 778 776 773 771 771 772 774 773 772 771 768 768 768 767
615 619 625 631 635 638 642 646 650 652 657 666 673 677 674 669 670 673 680 688 694 694 688 681 680 687 693 692 693 693 697 709 716 719 725 728 731 737 741 742 738 735 746 766 778 778 781 784 780 781 782 781 785 788 788 797 809 810 805 808 812 810 814 828 834 834 840 844 845 844 831 814 799 781 772 773 773 772 772 772 772 770 769 770 767 764 765 764
617 622 627 632 636 640 644 646 651 653 656 666 673 672 666 663 667 669 670 681 690 687 685 684 678 682 691 692 693 692 691 699 708 715 722 723 721 722 726 729 726 725 729 745 763 771 777 784 780 781 784 781 784 788 787 793 805 810 810 809 807 801 804 821 836 839 839 840 838 833 821 810 801 783 768 767 766 768 770 769 767 765 765 768 764 762 763 762
618 624 630 636 639 643 645 647 652 655 657 666 668 667 669 668 669 669 668 675 682 680 680 679 673 675 684 689 691 690 692 700 704 709 716 720 719 715 719 724 722 719 716 724 746 756 765 783 785 780 787 787 783 787 789 789 794 805 810 804 801 807 806 811 830 841 842 840 832 827 821 814 810 792 769 765 765 762 763 765 765 764 764 764 762 761 762 762
617 625 633 638 641 644 645 649 654 655 660 666 665 668 676 674 670 671 669 671 677 680 681 681 678 677 678 683 688 686 689 699 704 707 712 715 713 709 714 722 722 721 716 719 739 748 754 781 794 785 787 790 786 790 797 795 792 794 797 793 797 812 814 812 823 831 838 839 827 825 826 816 809 793 770 765 765 758 760 763 762 762 761 760 759 760 762 762
619 627 636 640 640 643 645 649 654 656 662 666 663 667 676 675 673 673 671 671 675 678 683 688 688 684 676 674 681 684 685 693 700 704 707 709 709 706 707 713 718 720 718 719 734 744 747 770 792 790 787 791 791 793 799 799 797 794 794 795 796 802 806 808 812 814 823 830 824 825 826 808 795 786 771 764 762 758 760 761 758 757 756 755 756 758 760 761
619 627 639 641 640 644 646 649 655 659 663 665 663 667 673 674 675 675 673 673 675 678 686 692 690 686 680 673 674 679 681 687 693 696 699 699 704 708 705 706 714 717 718 721 730 740 747 760 781 793 794 794 792 789 786 788 793 794 795 799 799 800 804 805 805 806 812 820 823 823 816 794 778 773 764 758 756 755 756 758 756 754 752 753 755 755 756 757
618 627 641 644 642 647 649 654 662 666 667 668 669 672 674 674 674 675 674 673 676 680 686 691 691 690 686 677 672 674 677 684 689 690 694 694 697 703 700 698 707 713 719 727 731 736 745 754 773 791 794 790 786 782 779 780 783 787 789 792 794 797 803 808 811 808 804 808 813 813 805 783 763 760 758 753 751 752 754 754 753 750 749 751 752 754 755 755
618 629 643 645 644 648 651 660 668 670 670 670 671 672 673 674 675 676 675 675 677 680 685 691 694 693 691 685 677 674 675 681 686 686 687 689 688 687 687 689 698 704 709 719 725 729 737 750 770 786 787 785 784 784 784 782 781 784 786 787 791 793 795 801 805 802 801 805 806 809 804 778 754 754 758 753 752 753 755 755 751 747 747 749 751 753 755 755
625 636 644 645 646 648 652 662 669 671 672 671 671 673 674 677 679 677 676 676 677 678 684 691 692 690 692 692 686 681 678 677 680 681 681 684 684 680 681 686 694 702 705 711 722 729 735 748 769 785 787 785 784 784 783 782 782 787 787 785 788 787 784 788 793 796 801 802 802 809 805 775 752 755 758 755 754 754 753 755 751 746 747 750 751 751 752 752
631 639 645 646 647 649 653 660 664 668 672 673 675 679 679 681 682 680 679 681 679 678 682 688 690 689 692 695 692 691 691 682 676 678 679 682 685 683 682 686 691 697 699 701 708 716 725 740 759 779 791 792 791 791 790 788 786 783 782 782 781 780 784 790 793 797 798 792 794 804 797 771 753 755 757 755 753 749 748 752 752 748 746 748 749 749 750 751
630 641 649 650 649 651 655 658 658 663 670 672 676 680 681 684 685 683 682 683 682 680 681 684 686 687 691 695 695 697 697 688 680 679 680 684 689 686 683 685 689 692 694 696 699 705 719 732 740 756 773 776 773 773 772 775 776 774 776 779 777 777 783 785 789 798 796 788 789 790 781 767 755 750 751 751 749 746 745 749 752 750 746 745 746 747 749 750
629 641 651 654 654 654 656 657 656 661 666 668 673 679 681 684 687 685 682 683 684 682 681 682 682 684 690 693 694 697 696 692 685 680 680 685 689 686 683 684 688 692 695 699 702 708 723 732 730 735 743 743 744 748 749 755 767 773 774 776 776 777 779 781 788 791 785 788 790 779 770 769 760 751 750 748 745 747 748 748 749 748 747 746 746 748 749 751
629 638 645 649 653 656 657 658 656 658 662 664 670 677 679 682 686 686 683 683 684 683 682 683 682 683 687 689 690 695 698 695 689 683 682 685 685 684 684 684 688 693 695 698 702 709 722 731 731 733 734 734 741 747 747 752 762 768 770 773 776 778 781 784 783 775 774 789 790 772 769 773 764 755 750 745 746 750 750 748 747 746 747 748 748 750 750 751
631 639 641 640 647 654 656 657 656 658 662 664 669 675 677 680 684 685 684 685 686 685 684 685 685 681 682 682 683 691 697 697 696 692 687 684 684 687 690 690 691 692 694 700 702 705 716 726 728 731 736 740 743 745 746 751 756 760 764 768 771 775 778 778 774 766 770 780 771 759 767 771 762 756 748 743 748 750 746 746 747 748 749 748 749 749 749 749
632 638 641 641 646 652 654 655 656 659 663 665 670 675 676 679 683 684 686 687 688 688 685 686 688 684 682 679 677 685 690 688 694 700 695 688 685 687 693 697 697 695 695 701 705 704 710 721 726 730 739 744 744 744 747 752 755 759 763 763 765 769 769 767 764 760 766 771 760 755 764 761 753 753 748 744 748 747 746 749 750 748 747 746 747 747 746 747
632 637 641 643 648 652 654 657 658 661 665 667 672 677 677 679 682 684 686 686 686 688 687 688 691 689 687 682 677 683 685 678 681 691 694 691 687 686 689 692 695 699 699 702 707 706 709 721 727 730 741 749 747 746 748 750 753 758 761 761 764 768 769 768 766 763 769 770 758 755 762 755 744 746 747 746 745 743 745 748 748 746 744 743 744 744 743 744
634 637 638 641 651 656 656 659 660 663 668 670 674 679 679 680 682 683 686 685 684 687 689 690 692 692 690 686 683 687 688 681 679 682 685 689 691 690 690 687 689 697 702 705 708 706 711 723 728 732 744 751 749 750 750 749 754 759 760 760 763 765 765 762 757 755 759 761 757 759 761 749 739 742 745 745 745 743 743 743 742 742 741 741 742 741 740 740
635 638 637 640 652 660 660 662 664 665 669 671 673 677 679 680 681 682 685 687 685 686 688 689 690 691 691 692 691 691 690 686 685 684 684 688 693 695 694 690 686 690 697 702 706 707 712 722 729 734 741 745 747 751 751 754 763 762 752 748 750 750 750 750 747 746 749 753 756 755 744 733 734 740 742 743 745 743 741 740 738 736 735 738 739 737 735 735